Regional Weather Roundup
Issued by NWS

Home | Current Version | Previous Version | Graphics & Text | Print | Product List | Glossary On
Versions: 1 2 3 4 5 6 7 8 9 10 11 12 13 14 15 16 17 18 19 20 21 22 23 24 25 26 27 28 29 30 31 32 33 34 35 36 37 38 39 40 41 42 43 44 45 46 47 48 49 50
000
ASUS45 KABQ 211810
RWRNM
WEATHER ROUNDUP FOR NEW MEXICO
NATIONAL WEATHER SERVICE ALBUQUERQUE NM
1200 PM MDT SUN SEP 21 2014

NOTE: "FAIR" MEANS FEW OR NO CLOUDS BELOW 12,000 FEET AGL WITH NO
       SIGNIFICANT WEATHER OR OBSTRUCTIONS TO VISION.

      THIS PRODUCT IS RELEASED AS TWO VERSIONS.  ONE VERSION NEAR
      THE TOP OF THE HOUR CONTAINING PRELIMINARY DATA FROM ALBUQUERQUE
      AND OTHER STATIONS.  A FINAL VERSION WITH ADDITIONAL DATA IS
      ISSUED ABOUT 10 MINUTES AFTER THE HOUR.

NMZ501-503-504-510>518-211900-
NORTHWEST PLATEAU/NORTHCENTRAL MOUNTAINS

CITY           SKY/WX    TMP DP  RH WIND       PRES   REMARKS
FARMINGTON     MOSUNNY   76  51  41 E8        30.27F
6HR MIN TEMP:  63; 6HR MAX TEMP:  79;

LOS ALAMOS     PTSUNNY   72  45  38 SE15G22   30.43S
SANTA FE       MOSUNNY   76  47  35 SE22G31   30.37S
6HR MIN TEMP:  54; 6HR MAX TEMP:  78;

TAOS           MOSUNNY   73  43  33 SE10      30.40F
ANGEL FIRE     CLOUDY    66  45  45 SE15      30.52S

$$
NMZ402-403-502-505>509-211900-
WESTCENTRAL MOUNTAINS/SOUTHWEST MOUNTAINS

CITY           SKY/WX    TMP DP  RH WIND       PRES   REMARKS
GALLUP         CLOUDY    70  53  54 NE7       30.34F
6HR MIN TEMP:  56; 6HR MAX TEMP:  70; 6HR PCP:  0.02;

GRANTS         MOSUNNY   75  50  41 SE16G26   30.37F
SILVER CITY    MOSUNNY   73  61  64 SE10      30.29F

$$
NMZ407-409-411-412-211900-
SOUTHERN DESERTS

CITY           SKY/WX    TMP DP  RH WIND       PRES   REMARKS
LORDSBURG      FAIR      79  63  57 MISG      30.19S
DEMING         PTSUNNY   79  62  56 E14       30.20F
6HR MIN TEMP:  68; 6HR MAX TEMP:  79;

LAS CRUCES     PTSUNNY   79  62  55 CALM      30.22F
HOLLOMAN AFB   MOSUNNY   79  64  59 W6        30.17F
ALAMOGORDO     MOSUNNY   77  64  65 CALM      30.20F
T OR C         MOSUNNY   77  61  57 VRB6      30.24F
6HR MIN TEMP:  65; 6HR MAX TEMP:  77;


$$
NMZ519>523-211900-
CENTRAL VALLEYS/CENTRAL HIGHLANDS

CITY           SKY/WX    TMP DP  RH WIND       PRES   REMARKS
ALBUQUERQUE    PTSUNNY   79  53  40 SE22G29   30.30F
6HR MIN TEMP:  64; 6HR MAX TEMP:  79;

DOUBLE EAGLE   PTSUNNY   77  54  44 SE14G24   30.34F
MORIARTY ARPT  CLOUDY    73  51  46 E15G21    30.39F
6HR MIN TEMP:  53; 6HR MAX TEMP:  74;

CLINES CORNERS CLOUDY    65  54  67 E18G26    30.42S
6HR MIN TEMP:  57; 6HR MAX TEMP:  67;

BELEN          CLOUDY    77  54  44 S7        30.29F
6HR MIN TEMP:  57; 6HR MAX TEMP:  79;

SOCORRO        FAIR      79  59  50 N5        30.26F
6HR MIN TEMP:  65; 6HR MAX TEMP:  79;


$$
NMZ524>526-539-540-211900-
SOUTHCENTRAL MOUNTAINS

CITY           SKY/WX    TMP DP  RH WIND       PRES   REMARKS
RUIDOSO        LGT RAIN  59  59 100 NE5       30.41S

$$
NMZ527>531-211900-
NORTHEAST HIGHLANDS/NORTHEAST PLAINS

CITY           SKY/WX    TMP DP  RH WIND       PRES   REMARKS
LAS VEGAS      MOSUNNY   69  53  56 E15       30.44F
6HR MIN TEMP:  49; 6HR MAX TEMP:  71;

RATON          PTSUNNY   71  50  47 E9        30.40F
6HR MIN TEMP:  58; 6HR MAX TEMP:  73;

CLAYTON        MOSUNNY   72  56  57 E16       30.38S
6HR MIN TEMP:  63; 6HR MAX TEMP:  73;


$$
NMZ532>537-211900-
EASTCENTRAL PLAINS

CITY           SKY/WX    TMP DP  RH WIND       PRES   REMARKS
TUCUMCARI      PTSUNNY   79  60  52 NE13      30.27F
6HR MIN TEMP:  63; 6HR MAX TEMP:  79;

CANNON AFB     MOSUNNY   79  57  47 E15       30.26F
6HR MIN TEMP:  66; 6HR MAX TEMP:  80;

CLOVIS AIRPORT   N/A     79  63  57 E16G23    30.29S

$$
NMZ028-029-538-211900-
SOUTHEAST PLAINS

CITY           SKY/WX    TMP DP  RH WIND       PRES   REMARKS
ROSWELL        LGT RAIN  67  64  90 S3        30.22F
6HR MIN TEMP:  66; 6HR MAX TEMP:  71; 6HR PCP:  0.60;

CARLSBAD       RAIN      70  32  24 MISG      30.17S VSB 1
6HR MIN TEMP:  69; 6HR MAX TEMP:  71;

HOBBS          CLOUDY    68  68 100 NE8       30.23S


$$



USA.gov is the U.S. government's official web portal to all federal, state and local government web resources and services.